Regional Weather Roundup
Issued by NWS

Home | Current Version | Previous Version | Graphics & Text | Print | Product List | Glossary Off
Versions: 1 2 3 4 5 6 7 8 9 10 11 12 13 14 15 16 17 18 19 20 21 22 23 24 25 26 27 28 29 30 31 32 33 34 35 36 37 38 39 40 41 42 43 44 45 46 47 48 49 50

739
ASUS43 KDTX 231410
RWRMI
MICHIGAN HOURLY REGIONAL WEATHER ROUNDUP
NATIONAL WEATHER SERVICE DETROIT/PONTIAC MI
900 AM EST FRI FEB 23 2018

NOTE: "FAIR" INDICATES FEW OR NO CLOUDS BELOW 12,000 FEET WITH NO
SIGNIFICANT WEATHER AND/OR OBSTRUCTION TO VISIBILITY.

MIZ047>049-052>055-059>063-066>070-074>076-081>083-231500-
SOUTHEAST LOWER MICHIGAN

CITY           SKY/WX    TMP DP  RH WIND       PRES   REMARKS
ADRIAN         RAIN      35  35 100 SE3       30.15F FOG
ALMA           LGT SNOW  34  34 100 S5        30.10F WCI  30
ANN ARBOR      LGT RAIN  36  36 100 SE5       30.14F FOG     WCI  32
BAD AXE        MIX PCPN  33  33  99 S12       30.13F VSB 1/2 WCI  25
CARO           LGT RAIN  35  34  99 SE9       30.11F WCI  27
DETROIT CITY   CLOUDY    37  36  96 S7        30.15F FOG     WCI  32
DETROIT        LGT RAIN  38  37  97 SE6       30.15F VSB 1   WCI  33
FLINT          LGT RAIN  36  35  96 SE12      30.12F VSB 1   WCI  28
GROSSE ILE     DRIZZLE   38  37  98 SE7       30.15F WCI  32
HILLSDALE      RAIN      36  34  93 SE8       30.10F WCI  29
HOWELL         CLOUDY    36  36 100 SE7       30.11F FOG     WCI  31

CITY           SKY/WX    TMP DP  RH WIND       PRES   REMARKS
JACKSON        LGT RAIN  37  36  96 SE8       30.11F FOG     WCI  31
LAMBERTVILLE   LGT RAIN  37  36  96 SE5       30.14F WCI  33
LANSING        LGT RAIN  37  37 100 S14       30.10F FOG     WCI  28
LAPEER         CLOUDY    35  35 100 S5        30.14F FOG     WCI  31
MASON          CLOUDY    38  35  89 S8        30.11F FOG     WCI  32
MONROE         LGT RAIN  35  33  93 SE6       30.14F WCI  30
MT. CLEMENS    CLOUDY    36  36 100 SE12      30.15F FOG     WCI  27
PONTIAC        FOG       35  35 100 SE7       30.12F VSB 1/4 WCI  29
PORT HOPE        N/A     34  33  96 S10G20    30.12F WCI  26
PORT HURON     CLOUDY    36  34  93 SE10G16   30.16F FOG     WCI  28
TRI CITIES     CLOUDY    35  34  96 S8        30.10F FOG     WCI  29
MIDLAND        CLOUDY    35  35 100 S7        30.10F FOG     WCI  29
TROY           CLOUDY    37  36  96 SE6       30.16F FOG     WCI  32
SAGINAW HB     LGT RAIN  34  34 100 SE10      30.10F WCI  26
$$
MIZ043>046-050>051-056>058-064>065-071>073-077>080-231500-
SOUTHWEST LOWER MICHIGAN

CITY           SKY/WX    TMP DP  RH WIND       PRES   REMARKS
BATTLE CREEK   CLOUDY    38  37  97 S8        30.10F FOG     WCI  32
BENTON HARBOR  LGT RAIN  41  38  89 S10       30.09S FOG
BIG RAPIDS     MIX PCPN  32  31  96 S6        30.06F WCI  26
COLDWATER      RAIN      38  38 100 SE6       30.12R WCI  33
FREMONT        MIX PCPN  34  32  92 S3        30.09R
HOLLAND        LGT RAIN  40  38  93 S7        30.08F FOG
GRAND RAPIDS   LGT RAIN  38  37  97 S5        30.09F FOG     WCI  34
IONIA          RAIN      36  36 100 SE8       30.08F WCI  29
KALAMAZOO      LGT RAIN  39  37  92 S8        30.10F FOG     WCI  33
LUDINGTON      DRIZZLE   34  34 100 SE5       30.07F WCI  30
MARSHALL       RAIN      37  37  97 CALM      30.11S
MOUNT PLEASANT LGT RAIN  33  32  96 SE3       30.09F VSB 3/4
MUSKEGON       LGT RAIN  38  35  89 SE5       30.09S FOG     WCI  34
SOUTH HAVEN    RAIN      40  39  95 S8        30.09S WCI  35
$$
MIZ016>042-231500-
NORTHERN LOWER MICHIGAN

CITY           SKY/WX    TMP DP  RH WIND       PRES   REMARKS
ALPENA         LGT RAIN  33  33 100 SE14      30.08F FOG     WCI  23
BEAVER ISLAND  MIX PCPN  33  32  96 S3        30.06F
BELLAIRE       MIX PCPN  33  33  99 S5        30.09R VSB 1   WCI  29
CADILLAC       MIX PCPN  32  32  99 S6        30.05S WCI  26
CHARLEVOIX     LGT RAIN  34  34 100 S7        30.09F WCI  28
FRANKFORT      LGT RAIN  36  36  99 SE8       30.06F WCI  30
GAYLORD        MIX PCPN  32  32 100 SW10      30.05R FOG     WCI  24
GRAYLING       FRZ RAIN  32  31  98 S8        30.05F WCI  25
HARBOR SPRINGS LGT SNOW  32  32  99 CALM      30.07F
HOUGHTON LAKE  CLOUDY    32  31  96 S10       30.06F WCI  24
MANISTEE       LGT RAIN  34  33  96 VRB3      30.07F FOG
OSCODA         MIX PCPN  32  32  99 S12       30.11F WCI  23
PELLSTON       FRZ RAIN  32  31  96 SE5       30.07F FOG     WCI  27
ROGERS CITY    CLOUDY    32  31  96 S14G20    30.08F FOG     WCI  22
TRAVERSE CITY  LGT RAIN  36  33  89 VRB3      30.06F FOG
$$
MIZ007>008-015-231500-
EASTERN UPPER MICHIGAN

CITY           SKY/WX    TMP DP  RH WIND       PRES   REMARKS
KINROSS        SNOW      28  27  93 E7        30.07F VSB 1/2 WCI  21
MACKINAC ISLAN LGT SNOW  32  32 100 CALM      30.08R
NEWBERRY       LGT SNOW  28  27  97 CALM      30.04F VSB 1
S. S. MARIE    SNOW      29  27  92 E8        30.10S VSB 1/2 WCI  21
MUNISING         N/A     26  26 100 S8        30.01F WCI  18
$$
MIZ004>006-011>014-085-231500-
CENTRAL UPPER MICHIGAN

CITY           SKY/WX    TMP DP  RH WIND       PRES   REMARKS
MANISTIQUE     LGT SNOW  28  27  94 E5        30.04F WCI  23
ESCANABA       MIX PCPN  31  30  96 SE6       30.04F FOG     WCI  25
MENOMINEE      MIX PCPN N/A N/A N/A S5        30.04F
SAWYER-GWINN   LGT SNOW  25  23  93 S8        29.98F WCI  16
$$
MIZ001>003-009>011-084-231500-
WESTERN UPPER MICHIGAN

CITY           SKY/WX    TMP DP  RH WIND       PRES   REMARKS
IRON MOUNTAIN  CLOUDY    29  27  92 SE5       29.97F FOG     WCI  24
HOUGHTON       LGT SNOW  26  22  84 E8        29.96F VSB 3/4 WCI  18
COPPER HARBOR    N/A     27  24  89 SW5       30.00F WCI  22
IRONWOOD       FLURRIES  25  23  92 CALM      29.99S
$$

ABBREVIATIONS USED IN REMARKS
   TC - TEMPERATURE IN CELSIUS
  WCI - WIND CHILL INDEX
   HX - HEAT INDEX
  VSB - VISIBILITY





USA.gov is the U.S. government's official web portal to all federal, state and local government web resources and services.